Location: Unspecified
(0.0000°N, 0.0000°E)
Time: 19:51:13
(UTC+00:00)

CZ-4B DEB - Visible Passes

Search period start: 12 January 2025 00:00
Search period end: 22 January 2025 00:00
Orbit: 586 x 702 km, 98.8° (Epoch: 09 January)

Date Brightness Start Highest point End Pass type
(mag) Time Alt. Az. Time Alt. Az. Time Alt. Az.
12 Jan ? 05:30:59 10° SSE 05:35:30 50° ENE 05:40:05 10° N visible
14 Jan ? 04:46:55 10° E 04:48:28 11° ENE 04:50:02 10° ENE visible
14 Jan ? 18:33:54 10° NNW 18:37:04 21° WNW 18:40:13 10° SW visible
15 Jan ? 05:09:13 10° SE 05:13:01 24° ENE 05:16:49 10° NNE visible
16 Jan ? 05:32:59 10° SSE 05:37:34 50° ENE 05:42:10 10° N visible
18 Jan ? 04:48:49 10° E 04:50:30 12° ENE 04:52:10 10° NE visible
18 Jan ? 18:35:54 10° NNW 18:39:00 21° WNW 18:42:07 10° SW visible
19 Jan ? 05:11:11 10° SE 05:15:02 25° ENE 05:18:52 10° NNE visible
20 Jan ? 05:34:57 10° SSE 05:39:34 51° ENE 05:44:10 10° N visible
